Regional Weather Roundup
Issued by NWS Spokane, WA

Home | Current Version | Previous Version | Text Only | Print | Product List | Glossary On
Versions: 1 2 3 4 5 6 7 8 9 10 11 12 13 14 15 16 17 18 19 20 21 22 23 24 25 26 27 28 29 30 31 32 33 34 35 36 37 38 39 40 41 42 43 44 45 46 47 48 49 50
000
NZUS01 KOTX 200810
RWROTX
EASTERN WASHINGTON/NORTHERN IDAHO ROUNDUP
NATIONAL WEATHER SERVICE, SPOKANE WA
100 AM PDT SUN APR 20 2014

Note: "fair" indicated few or no clouds below 12,000 feet with no
significant weather and/or obstructions to visibility.

...NORTHEAST WASHINGTON AND NORTHERN IDAHO PANHANDLE...

CITY           SKY/WX    TMP DP  RH WIND       PRES   REMARKS
SPOKANE INTL   CLEAR     43  32  65 SW22      30.05R
SPOKANE DOWNTO CLEAR     46  33  60 SW14G21   30.07R
COEUR D ALENE  CLOUDY    46  34  61 SW15      30.08R
DEER PARK      PTCLDY    44  31  60 S12       30.05R
SANDPOINT      CLOUDY    46  34  61 SW7       30.02R

...SOUTHEAST WASHINGTON AND SOUTHERN IDAHO PANHANDLE...

CITY           SKY/WX    TMP DP  RH WIND       PRES   REMARKS
WALLA WALLA    CLEAR     48  37  65 S13       30.21R
PULLMAN/MOSCOW MOCLDY    42  33  70 SW13      30.17R
LEWISTON       LGT RAIN  51  29  42 W14G24    30.15R
LOWELL           N/A     45  43  93 CALM      30.18R

...COLUMBIA BASIN...

CITY           SKY/WX    TMP DP  RH WIND       PRES   REMARKS
EPHRATA        CLEAR     41  27  57 S10       30.10R
MOSES LAKE     CLEAR     49  31  49 SW14G21   30.13R
TRI CITIES     CLEAR     50  36  58 SW15      30.18R
HERMISTON      CLEAR     47  36  65 SW6       30.21R
PENDLETON      CLEAR     44  36  73 W20       30.19R

...EAST SLOPES CASCADES...

CITY           SKY/WX    TMP DP  RH WIND       PRES   REMARKS
THE DALLES     CLEAR     49  39  68 NW12      30.23R
YAKIMA         PTCLDY    40  30  67 CALM      30.15R
ELLENSBURG     CLEAR     42  33  70 NW13      30.13R
WENATCHEE      CLEAR     45  31  58 N6        30.10R
OMAK           MOCLDY    48  30  49 S10       30.02R

...SOUTHERN BRITISH COLUMBIA...

CITY           SKY/WX    TMP DP  RH WIND       PRES   REMARKS
PENTICTON      MOCLDY    45  36  70 SE3       29.99R
CRANBROOK      MOCLDY    41  34  75 S13       29.89R

...WESTERN MONTANA...

CITY           SKY/WX    TMP DP  RH WIND       PRES   REMARKS
MISSOULA       CLOUDY    45  33  63 W6        30.09R

...NEIGHBORING CITIES...

CITY           SKY/WX    TMP DP  RH WIND       PRES   REMARKS
SEATTLE        PTCLDY    46  43  89 SW18      30.20R
CALGARY        MOCLDY    41  23  48 N5        29.72R



USA.gov is the U.S. government's official web portal to all federal, state and local government web resources and services.